Weather History for Muncie, IN

Change the Weather History Date:

Tuesday, August 27, 2013

  Actual Average Record
Temperature  
Mean Temperature 82 °F 72 °F  
Max Temperature 92 °F 82 °F 93 °F (1993)
Min Temperature 72 °F 61 °F 49 °F (1963)
Degree Days  
Heating Degree Days 0 0  
Month to date heating degree days 19 0  
Since 1 June heating degree days 40 27  
Since 1 July heating degree days 26 3  
Cooling Degree Days 17 7  
Month to date cooling degree days 158 213  
Year to date cooling degree days 762 806  
Since 1 June cooling degree days 594 723  
Growing Degree Days 32 (Base 50)    
Moisture  
Dew Point 69 °F    
Average Humidity 70    
Maximum Humidity 93    
Minimum Humidity 47    
Precipitation  
Precipitation 0.00 in 0.11 in 1.80 in (1967)
Month to date precipitation 1.34 2.86  
Year to date precipitation 23.95 27.47  
Sea Level Pressure  
Sea Level Pressure 29.99 in    
Wind  
Wind Speed 8 mph (WSW)    
Max Wind Speed 16 mph    
Max Gust Speed 21 mph    
Visibility 9 miles    
Events      
T = Trace of Precipitation, MM = Missing Value Source: NWS Daily Summary

Daily Weather History Graph

Daily Weather History Graph

Search for Another Location

Airport:

Trip Planner

Search our weather history database for the weather conditions in past years. The results will help you decide how hot, cold, wet, or windy it might be!

Date:

Astronomy

Aug. 27, 2013 Rise Set
Actual Time 7:04 AM EDT 8:20 PM EDT
Civil Twilight 6:36 AM EDT 8:48 PM EDT
Nautical Twilight 6:02 AM EDT 9:22 PM EDT
Astronomical Twilight 5:27 AM EDT 9:57 PM EDT
Moon No Moon Rise 2:02 PM EDT (8/27)
Length of Visible Light 14h 12m
Length of Day
13h 16m
Waning Gibbous, 57% of the Moon is Illuminated
Aug 27
Waning Gibbous
Aug 28
Last Quarter
Sep 5
New
Sep 12
First Quarter
Sep 19
Full

Hourly Weather History & Observations

Time (EDT) Temp. Heat Index Dew Point Humidity Pressure Visibility Wind Dir Wind Speed Gust Speed Precip Events Conditions
12:53 AM 73.9 °F - 66.9 °F 79% 30.06 in 9.0 mi WSW 8.1 mph - N/A   Clear
1:53 AM 73.9 °F - 68.0 °F 82% 30.04 in 8.0 mi WSW 5.8 mph - N/A   Clear
2:53 AM 73.0 °F - 69.1 °F 87% 30.02 in 7.0 mi WSW 9.2 mph - N/A   Clear
3:53 AM 73.9 °F - 69.1 °F 85% 30.03 in 8.0 mi WSW 8.1 mph - N/A   Clear
4:53 AM 73.0 °F - 69.1 °F 87% 30.01 in 7.0 mi WSW 6.9 mph - N/A   Clear
5:53 AM 73.0 °F - 69.1 °F 87% 30.01 in 7.0 mi WSW 6.9 mph - N/A   Clear
6:53 AM 72.0 °F - 69.1 °F 91% 30.01 in 6.0 mi SW 5.8 mph - N/A   Clear
7:53 AM 72.0 °F - 69.1 °F 91% 30.03 in 4.0 mi SW 5.8 mph - N/A   Clear
8:53 AM 73.9 °F - 70.0 °F 87% 30.04 in 5.0 mi SW 8.1 mph - N/A   Clear
9:53 AM 77.0 °F - 71.1 °F 82% 30.03 in 7.0 mi WSW 6.9 mph - N/A   Clear
10:53 AM 79.0 °F - 71.1 °F 77% 30.02 in 10.0 mi WSW 8.1 mph - N/A   Clear
11:53 AM 81.0 °F 84.9 °F 71.1 °F 72% 30.02 in 10.0 mi SW 6.9 mph - N/A   Clear
12:53 PM 84.0 °F 89.6 °F 72.0 °F 67% 30.01 in 10.0 mi WSW 8.1 mph - N/A   Partly Cloudy
1:53 PM 87.1 °F 93.6 °F 72.0 °F 61% 29.99 in 10.0 mi WSW 6.9 mph - N/A   Clear
2:53 PM 88.0 °F 94.7 °F 72.0 °F 59% 29.97 in 10.0 mi West 8.1 mph - N/A   Clear
3:53 PM 90.0 °F 95.4 °F 70.0 °F 52% 29.95 in 10.0 mi WNW 8.1 mph - N/A   Partly Cloudy
4:53 PM 91.0 °F 95.2 °F 68.0 °F 47% 29.94 in 10.0 mi WSW 11.5 mph 17.3 mph N/A   Scattered Clouds
5:53 PM 90.0 °F 92.4 °F 66.0 °F 45% 29.94 in 10.0 mi West 12.7 mph 20.7 mph N/A   Clear
6:53 PM 87.1 °F 89.9 °F 66.9 °F 51% 29.94 in 10.0 mi West 10.4 mph 19.6 mph N/A   Clear
7:53 PM 84.9 °F 88.8 °F 69.1 °F 59% 29.94 in 10.0 mi West 6.9 mph - N/A   Clear
8:53 PM 82.0 °F 85.5 °F 69.1 °F 65% 29.94 in 10.0 mi West 8.1 mph - N/A   Clear
9:53 PM 80.1 °F 82.9 °F 69.1 °F 69% 29.95 in 10.0 mi WSW 9.2 mph - N/A   Clear
10:53 PM 79.0 °F - 69.1 °F 72% 29.94 in 10.0 mi WSW 4.6 mph - N/A   Clear
11:53 PM 78.1 °F - 70.0 °F 76% 29.94 in 10.0 mi SW 6.9 mph - N/A   Clear